Location: Spruce Knob
(38.6995°N, 79.5330°W)
Time: 22:55:42
(UTC-05:00)

Vanguard 2 - Visible Passes

Search period start: 22 January 2022 00:00
Search period end: 01 February 2022 00:00
Orbit: 553 x 2936 km, 32.9° (Epoch: 22 January)

Date Brightness Start Highest point End Pass type
(mag) Time Alt. Az. Time Alt. Az. Time Alt. Az.
22 Jan 11.5 01:48:04 19° ESE 01:48:04 19° ESE 01:51:23 10° ESE visible
22 Jan 10.8 03:49:28 36° S 03:49:28 36° S 04:00:17 10° SSE visible
22 Jan 11.4 05:50:52 12° WSW 05:55:24 14° SW 06:01:59 10° SSW visible
22 Jan 10.2 19:13:19 10° S 19:19:47 24° SE 19:22:24 22° ESE visible
22 Jan 10.1 21:18:35 10° SW 21:23:47 38° SW 21:23:47 38° SW visible
23 Jan 11.5 02:04:48 21° SE 02:04:48 21° SE 02:08:46 10° SE visible
23 Jan 10.9 04:06:11 31° SSW 04:06:11 31° SSW 04:16:37 10° SSE visible
23 Jan 9.9 19:29:46 10° SSW 19:36:48 31° SE 19:39:04 29° ESE visible
23 Jan 10.2 21:35:55 10° WSW 21:40:27 35° SW 21:40:27 35° SW visible
24 Jan 11.4 02:21:32 22° SE 02:21:32 22° SE 02:25:56 10° SE visible
24 Jan 11.1 04:22:55 24° SSW 04:22:55 24° SSW 04:32:27 10° S visible
24 Jan 9.6 19:46:34 10° SW 19:53:58 39° SSE 19:55:42 37° SE visible
24 Jan 10.4 21:53:22 10° WSW 21:57:05 30° WSW 21:57:05 30° WSW visible
25 Jan 11.4 02:38:15 21° SSE 02:38:15 21° SSE 02:42:50 10° SE visible
25 Jan 11.3 04:39:39 18° SW 04:39:39 18° SW 04:47:27 10° S visible
25 Jan 10.2 18:00:03 10° SSE 18:03:46 15° SE 18:08:19 10° ESE visible
25 Jan 9.4 20:03:35 10° SW 20:11:14 47° SSE 20:12:19 46° SE visible
25 Jan 10.7 22:10:52 10° WSW 22:13:42 24° WSW 22:13:42 24° WSW visible
26 Jan 11.4 02:54:58 20° SSE 02:54:58 20° SSE 02:59:24 10° SSE visible
26 Jan 11.5 04:56:22 12° SW 04:56:22 12° SW 05:00:36 10° SSW visible
26 Jan 9.9 18:15:48 10° S 18:20:42 21° SE 18:27:27 10° E visible
26 Jan 9.3 20:20:49 10° SW 20:28:39 54° SSE 20:28:55 54° SSE visible
26 Jan 10.9 22:28:25 10° W 22:30:17 19° WSW 22:30:17 19° WSW visible
27 Jan 11.5 03:11:40 18° S 03:11:40 18° S 03:15:32 10° SSE visible
27 Jan 9.6 18:32:15 10° SSW 18:37:45 28° SE 18:44:05 14° E visible
27 Jan 9.2 20:38:10 10° WSW 20:45:29 59° S 20:45:29 59° S visible
27 Jan 11.1 22:46:01 10° W 22:46:52 14° W 22:46:52 14° W visible
28 Jan 11.6 03:28:19 14° S 03:28:19 14° S 03:31:04 10° S visible
28 Jan 9.3 18:49:04 10° SW 18:54:56 36° SSE 19:00:39 20° E visible
28 Jan 9.3 20:55:36 10° WSW 21:02:02 57° SSW 21:02:02 57° SSW visible
29 Jan 11.7 03:44:58 11° SSW 03:44:58 11° SSW 03:45:31 10° S visible
29 Jan 9.1 19:06:09 10° SW 19:12:14 44° SSE 19:17:12 25° ESE visible
29 Jan 9.5 21:13:05 10° WSW 21:18:35 49° SW 21:18:35 49° SW visible
30 Jan 8.9 19:23:23 10° WSW 19:29:38 51° SSE 19:33:44 32° ESE visible
30 Jan 9.9 21:30:37 10° W 21:35:06 39° WSW 21:35:06 39° WSW visible
31 Jan 8.9 19:40:44 10° WSW 19:47:08 56° SSE 19:50:15 40° ESE visible
31 Jan 10.2 21:48:11 10° W 21:51:38 30° WSW 21:51:38 30° WSW visible
